Time,TemperatureF,DewpointF,PressureIn,WindDirection,WindDirectionDegrees,WindSpeedMPH,WindSpeedGustMPH,Humidity,HourlyPrecipIn,Conditions,Clouds,dailyrainin,SoftwareType,DateUTC
2013-05-30 00:01:00,65.7,65.7,29.53,NW,304,0.0,7.2,100,0.00,,---,0.00,VWS V14.01,2013-05-30 04:01:00,
2013-05-30 00:06:00,65.7,65.1,29.53,NNW,340,0.0,4.5,98,0.00,,---,0.00,VWS V14.01,2013-05-30 04:06:00,
2013-05-30 00:11:00,65.7,64.5,29.53,NNW,340,0.0,0.0,96,0.00,,---,0.00,VWS V14.01,2013-05-30 04:11:00,
2013-05-30 00:16:00,65.7,64.2,29.53,NNW,337,0.0,5.4,95,0.00,,---,0.00,VWS V14.01,2013-05-30 04:16:00,
2013-05-30 00:21:00,65.7,64.2,29.53,NW,323,0.0,5.4,95,0.00,,---,0.00,VWS V14.01,2013-05-30 04:21:00,
2013-05-30 00:26:00,65.7,64.2,29.53,NNW,346,0.0,0.0,95,0.00,,---,0.00,VWS V14.01,2013-05-30 04:26:00,
2013-05-30 00:31:00,65.7,64.5,29.53,NNW,337,0.0,0.0,96,0.00,,---,0.00,VWS V14.01,2013-05-30 04:31:00,
2013-05-30 00:36:00,65.7,64.5,29.53,North,350,0.0,0.0,96,0.00,,---,0.00,VWS V14.01,2013-05-30 04:36:00,
2013-05-30 00:41:00,65.7,64.5,29.53,North,7,0.0,0.0,96,0.00,,---,0.00,VWS V14.01,2013-05-30 04:41:00,
2013-05-30 00:46:00,65.3,64.1,29.53,North,7,0.0,0.0,96,0.00,,---,0.00,VWS V14.01,2013-05-30 04:46:00,
2013-05-30 00:51:00,65.3,64.1,29.53,North,7,0.0,0.0,96,0.00,,---,0.00,VWS V14.01,2013-05-30 04:51:00,
2013-05-30 00:56:00,65.1,64.8,29.53,North,7,0.0,0.0,99,0.04,,---,0.04,VWS V14.01,2013-05-30 04:56:00,
2013-05-30 01:01:00,65.1,64.8,29.53,ENE,77,4.5,4.5,99,0.04,,---,0.04,VWS V14.01,2013-05-30 05:01:00,
2013-05-30 01:06:00,64.9,64.9,29.53,SSE,153,0.0,5.4,100,0.04,,---,0.04,VWS V14.01,2013-05-30 05:06:00,
2013-05-30 01:11:00,64.8,64.8,29.53,South,178,0.0,0.0,100,0.04,,---,0.04,VWS V14.01,2013-05-30 05:11:00,
2013-05-30 01:16:00,64.8,64.8,29.53,South,174,0.0,0.0,100,0.04,,---,0.04,VWS V14.01,2013-05-30 05:16:00,
2013-05-30 01:21:00,64.8,64.8,29.47,South,174,0.0,0.0,100,0.04,,---,0.04,VWS V14.01,2013-05-30 05:21:00,
2013-05-30 01:26:00,64.8,64.8,29.47,South,174,0.0,0.0,100,0.04,,---,0.04,VWS V14.01,2013-05-30 05:26:00,
2013-05-30 01:31:00,64.6,64.6,29.47,South,174,0.0,0.0,100,0.04,,---,0.04,VWS V14.01,2013-05-30 05:31:00,
2013-05-30 01:36:00,64.6,64.6,29.47,South,174,0.0,0.0,100,0.04,,---,0.04,VWS V14.01,2013-05-30 05:36:00,
2013-05-30 01:41:00,64.6,64.6,29.47,South,174,0.0,0.0,100,0.04,,---,0.04,VWS V14.01,2013-05-30 05:41:00,
2013-05-30 01:46:00,64.4,64.4,29.47,South,174,0.0,0.0,100,0.04,,---,0.04,VWS V14.01,2013-05-30 05:46:00,
2013-05-30 01:51:00,64.4,64.4,29.47,South,174,0.0,0.0,100,0.04,,---,0.04,VWS V14.01,2013-05-30 05:51:00,
2013-05-30 01:56:00,64.4,64.4,29.47,South,174,0.0,0.0,100,0.00,,---,0.04,VWS V14.01,2013-05-30 05:56:00,
2013-05-30 02:01:00,64.2,64.2,29.50,South,174,0.0,0.0,100,0.00,,---,0.04,VWS V14.01,2013-05-30 06:01:00,
2013-05-30 02:06:00,64.2,64.2,29.50,South,174,0.0,0.0,100,0.00,,---,0.04,VWS V14.01,2013-05-30 06:06:00,
2013-05-30 02:11:00,64.2,64.2,29.50,South,174,0.0,0.0,100,0.00,,---,0.04,VWS V14.01,2013-05-30 06:11:00,
2013-05-30 02:16:00,64.0,64.0,29.50,South,174,0.0,0.0,100,0.00,,---,0.04,VWS V14.01,2013-05-30 06:16:00,
2013-05-30 02:21:00,63.9,63.9,29.50,South,174,0.0,0.0,100,0.00,,---,0.04,VWS V14.01,2013-05-30 06:21:00,
2013-05-30 02:26:00,63.9,63.9,29.50,South,174,0.0,0.0,100,0.00,,---,0.04,VWS V14.01,2013-05-30 06:26:00,
2013-05-30 02:31:00,63.7,63.7,29.50,South,174,0.0,0.0,100,0.00,,---,0.04,VWS V14.01,2013-05-30 06:31:00,
2013-05-30 02:36:00,63.7,63.7,29.50,South,174,0.0,0.0,100,0.00,,---,0.04,VWS V14.01,2013-05-30 06:36:00,
2013-05-30 02:41:00,63.3,63.3,29.47,South,174,0.0,0.0,100,0.00,,---,0.04,VWS V14.01,2013-05-30 06:41:00,
2013-05-30 02:46:00,63.3,63.3,29.47,South,180,0.0,0.0,100,0.00,,---,0.04,VWS V14.01,2013-05-30 06:46:00,
2013-05-30 02:51:00,63.1,63.1,29.47,South,180,0.0,0.0,100,0.00,,---,0.04,VWS V14.01,2013-05-30 06:51:00,
2013-05-30 02:56:00,63.1,63.1,29.47,South,180,0.0,0.0,100,0.00,,---,0.04,VWS V14.01,2013-05-30 06:56:00,
2013-05-30 03:01:00,63.0,63.0,29.47,South,180,0.0,0.0,100,0.00,,---,0.04,VWS V14.01,2013-05-30 07:01:00,
2013-05-30 03:06:00,62.8,62.8,29.47,South,180,0.0,0.0,100,0.00,,---,0.04,VWS V14.01,2013-05-30 07:06:00,
2013-05-30 03:11:00,62.8,62.8,29.47,South,180,0.0,0.0,100,0.00,,---,0.04,VWS V14.01,2013-05-30 07:11:00,
2013-05-30 03:16:00,62.6,62.6,29.47,South,180,0.0,0.0,100,0.00,,---,0.04,VWS V14.01,2013-05-30 07:16:00,
2013-05-30 03:21:00,62.6,62.6,29.47,South,180,0.0,0.0,100,0.00,,---,0.04,VWS V14.01,2013-05-30 07:21:00,
2013-05-30 03:26:00,62.4,62.4,29.47,SSE,167,0.0,0.0,100,0.00,,---,0.04,VWS V14.01,2013-05-30 07:26:00,
2013-05-30 03:31:00,62.4,62.4,29.47,SSE,167,0.0,0.0,100,0.00,,---,0.04,VWS V14.01,2013-05-30 07:31:00,
2013-05-30 03:36:00,62.2,62.2,29.47,SSE,167,0.0,0.0,100,0.00,,---,0.04,VWS V14.01,2013-05-30 07:36:00,
2013-05-30 03:41:00,62.2,62.2,29.47,SSE,167,0.0,0.0,100,0.00,,---,0.04,VWS V14.01,2013-05-30 07:41:00,
2013-05-30 03:46:00,62.2,62.2,29.47,SSE,154,0.0,0.0,100,0.00,,---,0.04,VWS V14.01,2013-05-30 07:46:00,
2013-05-30 03:51:00,62.1,62.1,29.47,SSE,154,0.0,0.0,100,0.00,,---,0.04,VWS V14.01,2013-05-30 07:51:00,
2013-05-30 03:56:00,62.1,62.1,29.47,SSE,154,0.0,0.0,100,0.00,,---,0.04,VWS V14.01,2013-05-30 07:56:00,
2013-05-30 04:01:00,61.9,61.9,29.47,SSE,154,0.0,0.0,100,0.00,,---,0.04,VWS V14.01,2013-05-30 08:01:00,
2013-05-30 04:06:00,61.9,61.9,29.47,SSE,154,0.0,0.0,100,0.00,,---,0.04,VWS V14.01,2013-05-30 08:06:00,
2013-05-30 04:11:00,61.9,61.9,29.47,SSE,154,0.0,0.0,100,0.00,,---,0.04,VWS V14.01,2013-05-30 08:11:00,
2013-05-30 04:16:00,61.7,61.7,29.47,SSE,154,0.0,0.0,100,0.00,,---,0.04,VWS V14.01,2013-05-30 08:16:00,
2013-05-30 04:21:00,61.7,61.7,29.47,SSE,154,0.0,0.0,100,0.00,,---,0.04,VWS V14.01,2013-05-30 08:21:00,
2013-05-30 04:26:00,61.5,61.5,29.47,SSE,154,0.0,0.0,100,0.00,,---,0.04,VWS V14.01,2013-05-30 08:26:00,
2013-05-30 04:31:00,61.5,61.5,29.47,SSE,154,0.0,0.0,100,0.00,,---,0.04,VWS V14.01,2013-05-30 08:31:00,
2013-05-30 04:36:00,61.7,61.7,29.47,SSE,164,0.0,0.0,100,0.00,,---,0.04,VWS V14.01,2013-05-30 08:36:00,
2013-05-30 04:41:00,61.7,61.7,29.47,SSE,164,0.0,0.0,100,0.00,,---,0.04,VWS V14.01,2013-05-30 08:41:00,
2013-05-30 04:46:00,61.7,61.7,29.47,SSE,164,0.0,0.0,100,0.00,,---,0.04,VWS V14.01,2013-05-30 08:46:00,
2013-05-30 04:51:00,61.7,61.7,29.47,SSE,164,0.0,0.0,100,0.00,,---,0.04,VWS V14.01,2013-05-30 08:51:00,
2013-05-30 04:56:00,61.9,61.9,29.47,SSE,164,0.0,0.0,100,0.00,,---,0.04,VWS V14.01,2013-05-30 08:56:00,
2013-05-30 05:01:00,61.7,61.7,29.47,SSE,164,0.0,0.0,100,0.00,,---,0.04,VWS V14.01,2013-05-30 09:01:00,
2013-05-30 05:06:00,61.7,61.7,29.47,SSE,164,0.0,0.0,100,0.00,,---,0.04,VWS V14.01,2013-05-30 09:06:00,
2013-05-30 05:11:00,61.5,61.5,29.47,SSE,164,0.0,0.0,100,0.00,,---,0.04,VWS V14.01,2013-05-30 09:11:00,
2013-05-30 05:16:00,61.3,61.3,29.47,SSE,164,0.0,0.0,100,0.00,,---,0.04,VWS V14.01,2013-05-30 09:16:00,
2013-05-30 05:21:00,61.3,61.3,29.47,SSE,164,0.0,0.0,100,0.00,,---,0.04,VWS V14.01,2013-05-30 09:21:00,
2013-05-30 05:26:00,61.3,61.3,29.47,SSE,164,0.0,0.0,100,0.00,,---,0.04,VWS V14.01,2013-05-30 09:26:00,
2013-05-30 05:31:00,61.3,61.3,29.47,South,172,0.0,0.0,100,0.00,,---,0.04,VWS V14.01,2013-05-30 09:31:00,
2013-05-30 05:36:00,61.5,61.5,29.47,South,174,0.0,0.0,100,0.00,,---,0.04,VWS V14.01,2013-05-30 09:36:00,
2013-05-30 05:41:00,61.5,61.5,29.47,South,174,0.0,0.0,100,0.00,,---,0.04,VWS V14.01,2013-05-30 09:41:00,
2013-05-30 05:46:00,61.3,61.3,29.47,South,174,0.0,0.0,100,0.00,,---,0.04,VWS V14.01,2013-05-30 09:46:00,
2013-05-30 05:51:00,61.3,61.3,29.47,South,174,0.0,0.0,100,0.00,,---,0.04,VWS V14.01,2013-05-30 09:51:00,
2013-05-30 05:56:00,61.3,61.3,29.50,South,174,0.0,0.0,100,0.00,,---,0.04,VWS V14.01,2013-05-30 09:56:00,
2013-05-30 06:01:00,61.3,61.3,29.50,South,174,0.0,0.0,100,0.00,,---,0.04,VWS V14.01,2013-05-30 10:01:00,
2013-05-30 06:06:00,61.3,61.3,29.50,South,174,0.0,0.0,100,0.00,,---,0.04,VWS V14.01,2013-05-30 10:06:00,
2013-05-30 06:11:00,61.5,61.5,29.50,South,174,0.0,0.0,100,0.00,,---,0.04,VWS V14.01,2013-05-30 10:11:00,
2013-05-30 06:16:00,61.7,61.7,29.50,South,174,0.0,0.0,100,0.00,,---,0.04,VWS V14.01,2013-05-30 10:16:00,
2013-05-30 06:21:00,61.7,61.7,29.50,South,176,0.0,0.0,100,0.00,,---,0.04,VWS V14.01,2013-05-30 10:21:00,
2013-05-30 06:26:00,61.7,61.7,29.50,South,177,0.0,0.0,100,0.00,,---,0.04,VWS V14.01,2013-05-30 10:26:00,
2013-05-30 06:31:00,61.9,61.9,29.50,South,176,0.0,0.0,100,0.00,,---,0.04,VWS V14.01,2013-05-30 10:31:00,
2013-05-30 06:36:00,61.9,61.9,29.50,South,176,0.0,0.0,100,0.00,,---,0.04,VWS V14.01,2013-05-30 10:36:00,
2013-05-30 06:41:00,62.1,62.1,29.50,South,176,0.0,0.0,100,0.00,,---,0.04,VWS V14.01,2013-05-30 10:41:00,
2013-05-30 06:46:00,62.2,62.2,29.50,South,176,0.0,0.0,100,0.00,,---,0.04,VWS V14.01,2013-05-30 10:46:00,
2013-05-30 06:51:00,62.2,62.2,29.50,South,176,0.0,0.0,100,0.00,,---,0.04,VWS V14.01,2013-05-30 10:51:00,
2013-05-30 06:56:00,62.6,62.6,29.50,South,176,0.0,0.0,100,0.00,,---,0.04,VWS V14.01,2013-05-30 10:56:00,
2013-05-30 07:01:00,62.8,62.8,29.50,South,176,0.0,0.0,100,0.00,,---,0.04,VWS V14.01,2013-05-30 11:01:00,
2013-05-30 07:06:00,63.1,63.1,29.50,South,176,0.0,0.0,100,0.00,,---,0.04,VWS V14.01,2013-05-30 11:06:00,
2013-05-30 07:11:00,63.3,63.3,29.50,South,176,0.0,0.0,100,0.00,,---,0.04,VWS V14.01,2013-05-30 11:11:00,
2013-05-30 07:16:00,63.3,63.3,29.50,South,176,0.0,0.0,100,0.00,,---,0.04,VWS V14.01,2013-05-30 11:16:00,
2013-05-30 07:21:00,63.9,63.9,29.50,South,176,0.0,0.0,100,0.00,,---,0.04,VWS V14.01,2013-05-30 11:21:00,
2013-05-30 07:26:00,64.2,64.2,29.50,South,176,0.0,0.0,100,0.00,,---,0.04,VWS V14.01,2013-05-30 11:26:00,
2013-05-30 07:31:00,64.4,64.4,29.50,South,176,0.0,0.0,100,0.00,,---,0.04,VWS V14.01,2013-05-30 11:31:00,
2013-05-30 07:36:00,64.6,64.6,29.50,South,176,0.0,0.0,100,0.00,,---,0.04,VWS V14.01,2013-05-30 11:36:00,
2013-05-30 07:41:00,64.8,64.8,29.50,South,176,0.0,0.0,100,0.00,,---,0.04,VWS V14.01,2013-05-30 11:41:00,
2013-05-30 07:46:00,65.1,65.1,29.50,South,176,0.0,0.0,100,0.00,,---,0.04,VWS V14.01,2013-05-30 11:46:00,
2013-05-30 07:51:00,65.5,65.5,29.50,South,176,0.0,0.0,100,0.00,,---,0.04,VWS V14.01,2013-05-30 11:51:00,
2013-05-30 07:56:00,65.8,65.8,29.50,South,189,0.0,0.0,100,0.00,,---,0.04,VWS V14.01,2013-05-30 11:56:00,
2013-05-30 08:01:00,66.0,66.0,29.50,South,189,0.0,0.0,100,0.00,,---,0.04,VWS V14.01,2013-05-30 12:01:00,
2013-05-30 08:06:00,66.4,66.4,29.50,South,189,0.0,0.0,100,0.00,,---,0.04,VWS V14.01,2013-05-30 12:06:00,
2013-05-30 08:11:00,66.9,66.9,29.50,SSE,151,0.0,0.0,100,0.00,,---,0.04,VWS V14.01,2013-05-30 12:11:00,
2013-05-30 08:16:00,67.3,67.3,29.53,SE,141,0.0,0.0,100,0.00,,---,0.04,VWS V14.01,2013-05-30 12:16:00,
2013-05-30 08:21:00,67.5,67.5,29.53,SE,142,0.0,0.0,100,0.00,,---,0.04,VWS V14.01,2013-05-30 12:21:00,
2013-05-30 08:26:00,67.6,67.6,29.53,SE,142,0.0,0.0,100,0.00,,---,0.04,VWS V14.01,2013-05-30 12:26:00,
2013-05-30 08:31:00,68.4,68.4,29.53,SE,138,0.0,0.0,100,0.00,,---,0.04,VWS V14.01,2013-05-30 12:31:00,
2013-05-30 08:36:00,68.9,68.9,29.53,NW,323,0.0,0.0,100,0.00,,---,0.04,VWS V14.01,2013-05-30 12:36:00,
2013-05-30 08:41:00,70.0,70.0,29.53,NW,324,0.0,0.0,100,0.00,,---,0.04,VWS V14.01,2013-05-30 12:41:00,
2013-05-30 08:46:00,70.7,70.7,29.53,NW,324,0.0,0.0,100,0.00,,---,0.04,VWS V14.01,2013-05-30 12:46:00,
2013-05-30 08:51:00,72.0,72.0,29.53,NW,324,0.0,0.0,100,0.00,,---,0.04,VWS V14.01,2013-05-30 12:51:00,
2013-05-30 08:56:00,73.4,73.4,29.53,NW,324,0.0,0.0,100,0.00,,---,0.04,VWS V14.01,2013-05-30 12:56:00,
2013-05-30 09:01:00,73.8,72.2,29.53,NW,324,0.0,0.0,95,0.00,,---,0.04,VWS V14.01,2013-05-30 13:01:00,
2013-05-30 09:06:00,74.5,71.0,29.53,NW,325,0.0,0.0,89,0.00,,---,0.04,VWS V14.01,2013-05-30 13:06:00,
2013-05-30 09:11:00,75.0,65.8,29.53,NW,326,0.0,0.0,73,0.00,,---,0.04,VWS V14.01,2013-05-30 13:11:00,
2013-05-30 09:16:00,75.2,65.2,29.53,NNE,12,0.0,0.0,71,0.00,,---,0.04,VWS V14.01,2013-05-30 13:16:00,
2013-05-30 09:21:00,75.7,64.0,29.53,NNE,14,0.0,0.0,67,0.00,,---,0.04,VWS V14.01,2013-05-30 13:21:00,
2013-05-30 09:26:00,75.9,61.5,29.53,North,11,0.0,0.0,61,0.00,,---,0.04,VWS V14.01,2013-05-30 13:26:00,
2013-05-30 09:31:00,76.1,61.7,29.53,NNW,331,0.0,0.0,61,0.00,,---,0.04,VWS V14.01,2013-05-30 13:31:00,
2013-05-30 09:36:00,76.1,61.7,29.53,North,10,0.0,0.0,61,0.00,,---,0.04,VWS V14.01,2013-05-30 13:36:00,
2013-05-30 09:41:00,77.4,60.0,29.53,North,7,0.0,0.0,55,0.00,,---,0.04,VWS V14.01,2013-05-30 13:41:00,
2013-05-30 09:46:00,78.1,58.5,29.53,NW,326,0.0,0.0,51,0.00,,---,0.04,VWS V14.01,2013-05-30 13:46:00,
2013-05-30 09:51:00,78.6,60.1,29.53,NW,323,0.0,0.0,53,0.00,,---,0.04,VWS V14.01,2013-05-30 13:51:00,
2013-05-30 09:56:00,78.6,60.1,29.53,North,357,0.0,0.0,53,0.00,,---,0.04,VWS V14.01,2013-05-30 13:56:00,
2013-05-30 10:01:00,80.1,60.3,29.53,North,357,0.0,0.0,51,0.00,,---,0.04,VWS V14.01,2013-05-30 14:01:00,
2013-05-30 10:06:00,80.8,60.4,29.53,North,357,0.0,0.0,50,0.00,,---,0.04,VWS V14.01,2013-05-30 14:06:00,
2013-05-30 10:11:00,82.0,61.0,29.53,North,357,0.0,0.0,49,0.00,,---,0.04,VWS V14.01,2013-05-30 14:11:00,
2013-05-30 10:16:00,82.4,61.3,29.53,North,357,0.0,0.0,49,0.00,,---,0.04,VWS V14.01,2013-05-30 14:16:00,
2013-05-30 10:21:00,83.3,60.4,29.53,North,357,0.0,0.0,46,0.00,,---,0.04,VWS V14.01,2013-05-30 14:21:00,
2013-05-30 10:26:00,84.2,61.8,29.53,North,357,0.0,0.0,47,0.00,,---,0.04,VWS V14.01,2013-05-30 14:26:00,
2013-05-30 10:31:00,84.4,62.0,29.53,North,357,0.0,0.0,47,0.00,,---,0.04,VWS V14.01,2013-05-30 14:31:00,
2013-05-30 10:36:00,85.1,60.1,29.53,North,357,0.0,0.0,43,0.00,,---,0.04,VWS V14.01,2013-05-30 14:36:00,
2013-05-30 10:41:00,85.1,60.1,29.53,North,357,0.0,0.0,43,0.00,,---,0.04,VWS V14.01,2013-05-30 14:41:00,
2013-05-30 10:46:00,86.2,60.4,29.53,North,357,0.0,0.0,42,0.00,,---,0.04,VWS V14.01,2013-05-30 14:46:00,
2013-05-30 10:51:00,86.7,59.5,29.53,North,357,0.0,0.0,40,0.00,,---,0.04,VWS V14.01,2013-05-30 14:51:00,
2013-05-30 10:56:00,86.7,59.5,29.53,North,357,0.0,0.0,40,0.00,,---,0.04,VWS V14.01,2013-05-30 14:56:00,
2013-05-30 11:01:00,87.4,60.9,29.53,North,357,0.0,0.0,41,0.00,,---,0.04,VWS V14.01,2013-05-30 15:01:00,
2013-05-30 11:06:00,87.8,61.2,29.53,North,357,0.0,0.0,41,0.00,,---,0.04,VWS V14.01,2013-05-30 15:06:00,
2013-05-30 11:11:00,88.0,60.7,29.53,North,357,0.0,0.0,40,0.00,,---,0.04,VWS V14.01,2013-05-30 15:11:00,
2013-05-30 11:16:00,88.5,61.8,29.53,North,357,0.0,0.0,41,0.00,,---,0.04,VWS V14.01,2013-05-30 15:16:00,
2013-05-30 11:21:00,88.9,60.8,29.53,North,357,0.0,0.0,39,0.00,,---,0.04,VWS V14.01,2013-05-30 15:21:00,
2013-05-30 11:26:00,88.9,60.8,29.53,North,357,0.0,0.0,39,0.00,,---,0.04,VWS V14.01,2013-05-30 15:26:00,
2013-05-30 11:31:00,89.4,61.2,29.53,North,357,0.0,0.0,39,0.00,,---,0.04,VWS V14.01,2013-05-30 15:31:00,
2013-05-30 11:36:00,89.8,60.8,29.53,North,357,0.0,0.0,38,0.00,,---,0.04,VWS V14.01,2013-05-30 15:36:00,
2013-05-30 11:41:00,89.6,60.7,29.53,North,357,0.0,0.0,38,0.00,,---,0.04,VWS V14.01,2013-05-30 15:41:00,
2013-05-30 11:46:00,90.1,61.9,29.53,North,357,0.0,0.0,39,0.00,,---,0.04,VWS V14.01,2013-05-30 15:46:00,
2013-05-30 11:51:00,90.3,61.3,29.53,North,357,0.0,0.0,38,0.00,,---,0.04,VWS V14.01,2013-05-30 15:51:00,
2013-05-30 11:56:00,90.1,61.9,29.53,North,357,0.0,0.0,39,0.00,,---,0.04,VWS V14.01,2013-05-30 15:56:00,
2013-05-30 12:01:00,90.5,61.5,29.53,North,357,0.0,0.0,38,0.00,,---,0.04,VWS V14.01,2013-05-30 16:01:00,
2013-05-30 12:06:00,90.7,61.6,29.53,North,357,0.0,0.0,38,0.00,,---,0.04,VWS V14.01,2013-05-30 16:06:00,
2013-05-30 12:11:00,91.6,61.7,29.53,North,357,0.0,0.0,37,0.00,,---,0.04,VWS V14.01,2013-05-30 16:11:00,
2013-05-30 12:16:00,91.8,61.8,29.53,North,357,0.0,0.0,37,0.00,,---,0.04,VWS V14.01,2013-05-30 16:16:00,
2013-05-30 12:21:00,91.9,62.0,29.53,North,357,0.0,0.0,37,0.00,,---,0.04,VWS V14.01,2013-05-30 16:21:00,
2013-05-30 12:26:00,92.1,62.1,29.53,North,357,0.0,0.0,37,0.00,,---,0.04,VWS V14.01,2013-05-30 16:26:00,
2013-05-30 12:31:00,91.8,61.8,29.53,North,357,0.0,0.0,37,0.00,,---,0.04,VWS V14.01,2013-05-30 16:31:00,
2013-05-30 12:36:00,91.8,61.8,29.53,North,357,0.0,0.0,37,0.00,,---,0.04,VWS V14.01,2013-05-30 16:36:00,
2013-05-30 12:41:00,91.8,61.8,29.53,North,357,0.0,0.0,37,0.00,,---,0.04,VWS V14.01,2013-05-30 16:41:00,
2013-05-30 12:46:00,91.6,61.7,29.50,North,357,0.0,0.0,37,0.00,,---,0.04,VWS V14.01,2013-05-30 16:46:00,
2013-05-30 12:51:00,91.6,61.7,29.50,North,357,0.0,0.0,37,0.00,,---,0.04,VWS V14.01,2013-05-30 16:51:00,
2013-05-30 12:56:00,91.9,62.0,29.50,North,357,0.0,0.0,37,0.00,,---,0.04,VWS V14.01,2013-05-30 16:56:00,
2013-05-30 13:01:00,92.1,62.1,29.50,North,357,0.0,0.0,37,0.00,,---,0.04,VWS V14.01,2013-05-30 17:01:00,
2013-05-30 13:06:00,92.3,62.3,29.50,North,357,0.0,0.0,37,0.00,,---,0.04,VWS V14.01,2013-05-30 17:06:00,
2013-05-30 13:10:00,92.5,62.4,29.50,North,357,0.0,0.0,37,0.00,,---,0.04,VWS V14.01,2013-05-30 17:10:00,
2013-05-30 13:16:00,92.8,62.8,29.50,North,357,0.0,0.0,37,0.00,,---,0.04,VWS V14.01,2013-05-30 17:16:00,
2013-05-30 13:21:00,93.0,62.9,29.50,North,357,0.0,0.0,37,0.00,,---,0.04,VWS V14.01,2013-05-30 17:21:00,
2013-05-30 13:26:00,92.5,62.4,29.50,North,357,0.0,0.0,37,0.00,,---,0.04,VWS V14.01,2013-05-30 17:26:00,
2013-05-30 13:31:00,92.7,62.6,29.50,North,357,0.0,0.0,37,0.00,,---,0.04,VWS V14.01,2013-05-30 17:31:00,
2013-05-30 13:36:00,92.5,62.4,29.50,North,357,0.0,0.0,37,0.00,,---,0.04,VWS V14.01,2013-05-30 17:36:00,
2013-05-30 13:41:00,92.7,62.6,29.50,North,357,0.0,0.0,37,0.00,,---,0.04,VWS V14.01,2013-05-30 17:41:00,
2013-05-30 13:45:00,92.3,62.3,29.50,North,357,0.0,0.0,37,0.00,,---,0.04,VWS V14.01,2013-05-30 17:45:00,
2013-05-30 13:50:00,92.1,62.1,29.50,North,357,0.0,0.0,37,0.00,,---,0.04,VWS V14.01,2013-05-30 17:50:00,
2013-05-30 13:55:00,92.1,62.1,29.50,North,357,0.0,0.0,37,0.00,,---,0.04,VWS V14.01,2013-05-30 17:55:00,
2013-05-30 14:00:00,92.5,62.4,29.50,North,357,0.0,0.0,37,0.00,,---,0.04,VWS V14.01,2013-05-30 18:00:00,
2013-05-30 14:05:00,92.8,62.8,29.50,North,357,0.0,0.0,37,0.00,,---,0.04,VWS V14.01,2013-05-30 18:05:00,
2013-05-30 14:10:00,92.7,62.6,29.50,North,357,0.0,0.0,37,0.00,,---,0.04,VWS V14.01,2013-05-30 18:10:00,
2013-05-30 14:15:00,91.9,62.0,29.50,North,357,0.0,0.0,37,0.00,,---,0.04,VWS V14.01,2013-05-30 18:15:00,
2013-05-30 14:20:00,91.8,61.8,29.50,North,357,0.0,0.0,37,0.00,,---,0.04,VWS V14.01,2013-05-30 18:20:00,
2013-05-30 14:25:00,91.8,61.8,29.50,North,357,0.0,0.0,37,0.00,,---,0.04,VWS V14.01,2013-05-30 18:25:00,
2013-05-30 14:30:00,90.9,61.8,29.50,North,357,0.0,0.0,38,0.00,,---,0.04,VWS V14.01,2013-05-30 18:30:00,
2013-05-30 14:35:00,90.5,61.5,29.50,North,357,0.0,0.0,38,0.00,,---,0.04,VWS V14.01,2013-05-30 18:35:00,
2013-05-30 14:40:00,90.9,61.8,29.50,North,357,0.0,0.0,38,0.00,,---,0.04,VWS V14.01,2013-05-30 18:40:00,
2013-05-30 14:45:00,90.9,61.8,29.50,North,357,0.0,0.0,38,0.00,,---,0.04,VWS V14.01,2013-05-30 18:45:00,
2013-05-30 14:50:00,91.0,61.9,29.47,North,357,0.0,0.0,38,0.00,,---,0.04,VWS V14.01,2013-05-30 18:50:00,
2013-05-30 14:55:00,92.3,62.3,29.47,North,357,0.0,0.0,37,0.00,,---,0.04,VWS V14.01,2013-05-30 18:55:00,
2013-05-30 15:00:00,93.0,62.9,29.47,North,357,0.0,0.0,37,0.00,,---,0.04,VWS V14.01,2013-05-30 19:00:00,
2013-05-30 15:05:00,93.2,62.3,29.47,North,357,0.0,0.0,36,0.00,,---,0.04,VWS V14.01,2013-05-30 19:05:00,
2013-05-30 15:10:00,93.2,62.3,29.47,North,357,0.0,0.0,36,0.00,,---,0.04,VWS V14.01,2013-05-30 19:10:00,
2013-05-30 15:15:00,93.2,62.3,29.47,North,357,0.0,0.0,36,0.00,,---,0.04,VWS V14.01,2013-05-30 19:15:00,
2013-05-30 15:20:00,92.5,62.4,29.47,North,357,0.0,0.0,37,0.00,,---,0.04,VWS V14.01,2013-05-30 19:20:00,
2013-05-30 15:25:00,92.7,62.6,29.47,North,357,0.0,0.0,37,0.00,,---,0.04,VWS V14.01,2013-05-30 19:25:00,
2013-05-30 15:30:00,92.3,62.3,29.47,North,357,0.0,0.0,37,0.00,,---,0.04,VWS V14.01,2013-05-30 19:30:00,
2013-05-30 15:35:00,91.9,62.0,29.47,North,357,0.0,0.0,37,0.00,,---,0.04,VWS V14.01,2013-05-30 19:35:00,
2013-05-30 15:40:00,90.7,61.6,29.47,North,357,0.0,0.0,38,0.00,,---,0.04,VWS V14.01,2013-05-30 19:40:00,
2013-05-30 15:45:00,90.1,60.4,29.47,North,357,0.0,0.0,37,0.00,,---,0.04,VWS V14.01,2013-05-30 19:45:00,
2013-05-30 15:50:00,89.2,60.3,29.47,North,357,0.0,0.0,38,0.00,,---,0.04,VWS V14.01,2013-05-30 19:50:00,
2013-05-30 15:55:00,88.5,59.7,29.47,North,357,0.0,0.0,38,0.00,,---,0.04,VWS V14.01,2013-05-30 19:55:00,
2013-05-30 16:00:00,88.5,59.7,29.47,North,357,0.0,0.0,38,0.00,,---,0.04,VWS V14.01,2013-05-30 20:00:00,
2013-05-30 16:05:00,87.4,58.7,29.47,North,357,0.0,0.0,38,0.00,,---,0.04,VWS V14.01,2013-05-30 20:05:00,
2013-05-30 16:10:00,87.1,59.2,29.47,North,357,0.0,0.0,39,0.00,,---,0.04,VWS V14.01,2013-05-30 20:10:00,
2013-05-30 16:15:00,86.4,58.5,29.47,North,357,0.0,0.0,39,0.00,,---,0.04,VWS V14.01,2013-05-30 20:15:00,
2013-05-30 16:20:00,86.0,58.2,29.47,North,357,0.0,0.0,39,0.00,,---,0.04,VWS V14.01,2013-05-30 20:20:00,
2013-05-30 16:25:00,86.0,58.2,29.47,North,357,0.0,0.0,39,0.00,,---,0.04,VWS V14.01,2013-05-30 20:25:00,
2013-05-30 16:30:00,85.8,58.0,29.47,North,357,0.0,0.0,39,0.00,,---,0.04,VWS V14.01,2013-05-30 20:30:00,
2013-05-30 16:35:00,85.6,58.6,29.47,North,357,0.0,0.0,40,0.00,,---,0.04,VWS V14.01,2013-05-30 20:35:00,
2013-05-30 16:40:00,85.3,58.2,29.47,North,357,0.0,0.0,40,0.00,,---,0.04,VWS V14.01,2013-05-30 20:40:00,
2013-05-30 16:45:00,85.1,57.4,29.47,North,357,0.0,0.0,39,0.00,,---,0.04,VWS V14.01,2013-05-30 20:45:00,
2013-05-30 16:50:00,84.7,57.8,29.47,North,357,0.0,0.0,40,0.00,,---,0.04,VWS V14.01,2013-05-30 20:50:00,
2013-05-30 16:55:00,84.6,56.9,29.47,North,357,0.0,0.0,39,0.00,,---,0.04,VWS V14.01,2013-05-30 20:55:00,
2013-05-30 17:00:00,84.4,57.5,29.47,North,357,0.0,0.0,40,0.00,,---,0.04,VWS V14.01,2013-05-30 21:00:00,
2013-05-30 17:05:00,84.2,57.3,29.47,North,357,0.0,0.0,40,0.00,,---,0.04,VWS V14.01,2013-05-30 21:05:00,
2013-05-30 17:10:00,84.0,57.8,29.47,North,357,0.0,0.0,41,0.00,,---,0.04,VWS V14.01,2013-05-30 21:10:00,
2013-05-30 17:15:00,83.8,57.7,29.47,SSE,160,0.0,0.0,41,0.00,,---,0.04,VWS V14.01,2013-05-30 21:15:00,
2013-05-30 17:20:00,83.5,57.3,29.47,South,172,0.0,0.0,41,0.00,,---,0.04,VWS V14.01,2013-05-30 21:20:00,
2013-05-30 17:25:00,83.5,58.0,29.44,SSW,199,0.0,0.0,42,0.00,,---,0.04,VWS V14.01,2013-05-30 21:25:00,
2013-05-30 17:30:00,83.1,57.7,29.44,South,177,0.0,0.0,42,0.00,,---,0.04,VWS V14.01,2013-05-30 21:30:00,
2013-05-30 17:35:00,82.9,58.2,29.44,SSW,212,0.0,5.4,43,0.00,,---,0.04,VWS V14.01,2013-05-30 21:35:00,
2013-05-30 17:40:00,82.6,57.2,29.44,West,275,0.0,0.0,42,0.00,,---,0.04,VWS V14.01,2013-05-30 21:40:00,
2013-05-30 17:45:00,82.4,57.0,29.44,South,170,0.0,0.0,42,0.00,,---,0.04,VWS V14.01,2013-05-30 21:45:00,
2013-05-30 17:50:00,82.2,58.2,29.47,SSE,165,0.0,0.0,44,0.00,,---,0.04,VWS V14.01,2013-05-30 21:50:00,
2013-05-30 17:55:00,82.0,57.4,29.47,South,188,0.0,0.0,43,0.00,,---,0.04,VWS V14.01,2013-05-30 21:55:00,
2013-05-30 18:00:00,81.9,57.8,29.47,SSE,168,0.0,0.0,44,0.00,,---,0.04,VWS V14.01,2013-05-30 22:00:00,
2013-05-30 18:05:00,81.5,57.5,29.47,NE,47,0.0,0.0,44,0.00,,---,0.04,VWS V14.01,2013-05-30 22:05:00,
2013-05-30 18:10:00,81.3,57.3,29.47,NE,54,0.0,0.0,44,0.00,,---,0.04,VWS V14.01,2013-05-30 22:10:00,
2013-05-30 18:15:00,81.0,57.6,29.47,NE,54,0.0,0.0,45,0.00,,---,0.04,VWS V14.01,2013-05-30 22:15:00,
2013-05-30 18:20:00,80.8,58.1,29.47,SW,225,0.0,0.0,46,0.00,,---,0.04,VWS V14.01,2013-05-30 22:20:00,
2013-05-30 18:25:00,80.4,59.0,29.47,SSE,160,0.0,0.0,48,0.00,,---,0.04,VWS V14.01,2013-05-30 22:25:00,
2013-05-30 18:30:00,80.2,58.2,29.47,South,185,0.0,0.0,47,0.00,,---,0.04,VWS V14.01,2013-05-30 22:30:00,
2013-05-30 18:35:00,79.9,57.9,29.47,WSW,243,6.3,6.3,47,0.00,,---,0.04,VWS V14.01,2013-05-30 22:35:00,
2013-05-30 18:40:00,79.5,58.1,29.47,WSW,251,0.0,0.0,48,0.00,,---,0.04,VWS V14.01,2013-05-30 22:40:00,
2013-05-30 18:45:00,79.3,58.5,29.47,SSW,212,0.0,0.0,49,0.00,,---,0.04,VWS V14.01,2013-05-30 22:45:00,
2013-05-30 18:51:00,79.0,58.2,29.47,SSW,208,0.0,0.0,49,0.00,,---,0.04,VWS V14.01,2013-05-30 22:51:00,
2013-05-30 18:56:00,78.6,58.4,29.47,SSW,208,0.0,0.0,50,0.00,,---,0.04,VWS V14.01,2013-05-30 22:56:00,
2013-05-30 19:01:00,78.4,57.7,29.47,South,186,0.0,0.0,49,0.00,,---,0.04,VWS V14.01,2013-05-30 23:01:00,
2013-05-30 19:06:00,78.3,57.5,29.47,South,186,0.0,0.0,49,0.00,,---,0.04,VWS V14.01,2013-05-30 23:06:00,
2013-05-30 19:11:00,78.1,57.4,29.47,South,185,0.0,0.0,49,0.00,,---,0.04,VWS V14.01,2013-05-30 23:11:00,
2013-05-30 19:16:00,77.7,57.1,29.47,SSW,200,0.0,0.0,49,0.00,,---,0.04,VWS V14.01,2013-05-30 23:16:00,
2013-05-30 19:20:00,77.5,57.5,29.47,SSW,207,0.0,0.0,50,0.00,,---,0.04,VWS V14.01,2013-05-30 23:20:00,
2013-05-30 19:25:00,77.2,56.6,29.47,South,188,0.0,0.0,49,0.00,,---,0.04,VWS V14.01,2013-05-30 23:25:00,
2013-05-30 19:30:00,76.8,57.3,29.47,South,184,0.0,0.0,51,0.00,,---,0.04,VWS V14.01,2013-05-30 23:30:00,
2013-05-30 19:35:00,76.5,56.5,29.47,South,184,0.0,0.0,50,0.00,,---,0.04,VWS V14.01,2013-05-30 23:35:00,
2013-05-30 19:40:00,76.3,56.3,29.47,South,179,0.0,0.0,50,0.00,,---,0.04,VWS V14.01,2013-05-30 23:40:00,
2013-05-30 19:45:00,75.9,56.5,29.47,South,179,0.0,0.0,51,0.00,,---,0.04,VWS V14.01,2013-05-30 23:45:00,
2013-05-30 19:50:00,75.4,56.0,29.47,South,179,0.0,0.0,51,0.00,,---,0.04,VWS V14.01,2013-05-30 23:50:00,
2013-05-30 19:55:00,75.2,55.8,29.47,South,179,0.0,0.0,51,0.00,,---,0.04,VWS V14.01,2013-05-30 23:55:00,
2013-05-30 20:00:00,74.8,56.0,29.47,South,179,0.0,0.0,52,0.00,,---,0.04,VWS V14.01,2013-05-31 00:00:00,
2013-05-30 20:05:00,74.7,55.9,29.47,South,185,6.3,6.3,52,0.00,,---,0.04,VWS V14.01,2013-05-31 00:05:00,
2013-05-30 20:10:00,74.3,55.6,29.47,South,169,0.0,0.0,52,0.00,,---,0.04,VWS V14.01,2013-05-31 00:10:00,
2013-05-30 20:15:00,74.1,55.4,29.47,SSE,158,0.0,0.0,52,0.00,,---,0.04,VWS V14.01,2013-05-31 00:15:00,
2013-05-30 20:20:00,73.9,55.2,29.47,SSE,158,0.0,0.0,52,0.00,,---,0.04,VWS V14.01,2013-05-31 00:20:00,
2013-05-30 20:25:00,73.6,54.9,29.47,SSE,159,0.0,0.0,52,0.00,,---,0.04,VWS V14.01,2013-05-31 00:25:00,
2013-05-30 20:30:00,73.4,54.7,29.47,SE,143,0.0,0.0,52,0.00,,---,0.04,VWS V14.01,2013-05-31 00:30:00,
2013-05-30 20:35:00,73.2,54.6,29.47,South,170,0.0,0.0,52,0.00,,---,0.04,VWS V14.01,2013-05-31 00:35:00,
2013-05-30 20:40:00,73.0,54.9,29.47,SSE,157,0.0,0.0,53,0.00,,---,0.04,VWS V14.01,2013-05-31 00:40:00,
2013-05-30 20:45:00,72.9,54.2,29.47,South,173,0.0,0.0,52,0.00,,---,0.04,VWS V14.01,2013-05-31 00:45:00,
2013-05-30 20:50:00,72.7,54.6,29.47,South,183,0.0,0.0,53,0.00,,---,0.04,VWS V14.01,2013-05-31 00:50:00,
2013-05-30 20:55:00,72.7,54.6,29.47,ESE,118,0.0,0.0,53,0.00,,---,0.04,VWS V14.01,2013-05-31 00:55:00,
2013-05-30 21:00:00,72.5,54.4,29.47,South,185,0.0,0.0,53,0.00,,---,0.04,VWS V14.01,2013-05-31 01:00:00,
2013-05-30 21:05:00,72.7,54.1,29.47,South,169,0.0,0.0,52,0.00,,---,0.04,VWS V14.01,2013-05-31 01:05:00,
2013-05-30 21:10:00,72.5,53.9,29.47,South,178,0.0,0.0,52,0.00,,---,0.04,VWS V14.01,2013-05-31 01:10:00,
2013-05-30 21:15:00,72.5,54.4,29.50,SSE,153,0.0,0.0,53,0.00,,---,0.04,VWS V14.01,2013-05-31 01:15:00,
2013-05-30 21:20:00,72.3,54.2,29.50,South,177,0.0,0.0,53,0.00,,---,0.04,VWS V14.01,2013-05-31 01:20:00,
2013-05-30 21:25:00,72.1,54.1,29.50,South,174,0.0,0.0,53,0.00,,---,0.04,VWS V14.01,2013-05-31 01:25:00,
2013-05-30 21:30:00,72.0,53.9,29.50,South,173,0.0,0.0,53,0.00,,---,0.04,VWS V14.01,2013-05-31 01:30:00,
2013-05-30 21:35:00,72.0,53.9,29.50,South,180,0.0,0.0,53,0.00,,---,0.04,VWS V14.01,2013-05-31 01:35:00,
2013-05-30 21:40:00,71.8,53.8,29.50,South,184,0.0,0.0,53,0.00,,---,0.04,VWS V14.01,2013-05-31 01:40:00,
2013-05-30 21:45:00,71.6,53.6,29.50,South,187,0.0,0.0,53,0.00,,---,0.04,VWS V14.01,2013-05-31 01:45:00,
2013-05-30 21:50:00,71.6,54.1,29.50,South,188,0.0,0.0,54,0.00,,---,0.04,VWS V14.01,2013-05-31 01:50:00,
2013-05-30 21:55:00,71.4,54.4,29.50,North,353,0.0,0.0,55,0.00,,---,0.04,VWS V14.01,2013-05-31 01:55:00,
2013-05-30 22:00:00,71.2,54.3,29.50,SSW,212,0.0,0.0,55,0.00,,---,0.04,VWS V14.01,2013-05-31 02:00:00,
2013-05-30 22:05:00,71.1,54.1,29.50,NNW,344,0.0,0.0,55,0.00,,---,0.04,VWS V14.01,2013-05-31 02:05:00,
2013-05-30 22:10:00,70.7,53.8,29.50,North,2,0.0,0.0,55,0.00,,---,0.04,VWS V14.01,2013-05-31 02:10:00,
2013-05-30 22:15:00,70.5,54.6,29.50,North,2,0.0,0.0,57,0.00,,---,0.04,VWS V14.01,2013-05-31 02:15:00,
2013-05-30 22:20:00,70.3,54.4,29.50,NNE,14,0.0,0.0,57,0.00,,---,0.04,VWS V14.01,2013-05-31 02:20:00,
2013-05-30 22:25:00,70.3,54.4,29.50,NE,43,0.0,0.0,57,0.00,,---,0.04,VWS V14.01,2013-05-31 02:25:00,
2013-05-30 22:30:00,70.2,54.2,29.50,ESE,102,0.0,0.0,57,0.00,,---,0.04,VWS V14.01,2013-05-31 02:30:00,
2013-05-30 22:35:00,70.0,54.1,29.50,ESE,102,0.0,0.0,57,0.00,,---,0.04,VWS V14.01,2013-05-31 02:35:00,
2013-05-30 22:40:00,70.0,54.5,29.50,ESE,102,0.0,0.0,58,0.00,,---,0.04,VWS V14.01,2013-05-31 02:40:00,
2013-05-30 22:45:00,70.0,54.5,29.50,SE,130,0.0,0.0,58,0.00,,---,0.04,VWS V14.01,2013-05-31 02:45:00,
2013-05-30 22:50:00,70.0,54.5,29.50,SE,130,0.0,0.0,58,0.00,,---,0.04,VWS V14.01,2013-05-31 02:50:00,
2013-05-30 22:55:00,70.0,54.5,29.50,SE,146,0.0,0.0,58,0.00,,---,0.04,VWS V14.01,2013-05-31 02:55:00,
2013-05-30 23:00:00,70.0,54.1,29.50,SE,146,0.0,0.0,57,0.00,,---,0.04,VWS V14.01,2013-05-31 03:00:00,
2013-05-30 23:05:00,70.0,54.1,29.50,SSE,147,0.0,0.0,57,0.00,,---,0.04,VWS V14.01,2013-05-31 03:05:00,
2013-05-30 23:10:00,70.0,54.1,29.50,SSE,154,0.0,0.0,57,0.00,,---,0.04,VWS V14.01,2013-05-31 03:10:00,
2013-05-30 23:15:00,70.0,53.6,29.50,SSE,154,0.0,0.0,56,0.00,,---,0.04,VWS V14.01,2013-05-31 03:15:00,
2013-05-30 23:20:00,70.0,53.6,29.50,SSE,154,0.0,0.0,56,0.00,,---,0.04,VWS V14.01,2013-05-31 03:20:00,
2013-05-30 23:25:00,70.0,53.6,29.50,ENE,74,0.0,0.0,56,0.00,,---,0.04,VWS V14.01,2013-05-31 03:25:00,
2013-05-30 23:30:00,70.0,53.6,29.50,SSE,165,0.0,0.0,56,0.00,,---,0.04,VWS V14.01,2013-05-31 03:30:00,
2013-05-30 23:35:00,69.8,53.4,29.50,SSE,165,0.0,0.0,56,0.00,,---,0.04,VWS V14.01,2013-05-31 03:35:00,
2013-05-30 23:40:00,69.8,53.4,29.50,SSE,165,0.0,0.0,56,0.00,,---,0.04,VWS V14.01,2013-05-31 03:40:00,
2013-05-30 23:45:00,69.8,53.4,29.50,SSE,165,0.0,0.0,56,0.00,,---,0.04,VWS V14.01,2013-05-31 03:45:00,
2013-05-30 23:50:00,69.6,53.7,29.50,SSE,165,0.0,0.0,57,0.00,,---,0.04,VWS V14.01,2013-05-31 03:50:00,
2013-05-30 23:55:00,69.6,53.7,29.50,SE,140,0.0,0.0,57,0.00,,---,0.04,VWS V14.01,2013-05-31 03:55:00,